Flag for Liechtenstein Weather past 2 weeks in Vaduz, Liechtenstein

Now
37 °F

Fog.


Feels Like: 32 °F
Forecast: 34 / 45 °F
Wind: 6 mph from Southeast

Location: Vaduz

Current Time: Jan 28, 2015 at 8:25:32 PM

Latest Report: Jan 28, 2015 at 7:00 PM


Visibility: 4 mi

Pressure: 29.90 "Hg

Humidity: 56%

Dew point: 22 °F

Location of VaduzLocation

Historic Weather in Vaduz — Graph

°F

Vaduz temperature yesterday

Maximum temperature yesterday: 38 °F (at 2:00 PM)
Minimum temperature yesterday: 31 °F (at 6:00 AM)
Average temperature yesterday: 33 °F

Past Weeks' High & Low Weather Summary

 TemperatureHumidityPressure
High60 °F (Jan 16, 2:00 PM)98% (Jan 17, 9:00 AM)30.48 "Hg (Jan 17, 9:00 AM)
Low28 °F (Jan 26, 9:00 AM)26% (Jan 15, 1:00 PM)29.61 "Hg (Jan 16, 7:00 PM)
Average37 °F76%30.06 "Hg
* Reported Jan 13 7:00 PM — Jan 28 7:00 PM, Vaduz, Weather by CustomWeather, © 2014

Note: Actual official high and low records may vary slightly from our data, if they occured in-between our weather recording intervals... More about our weather records

Advertising

Vaduz weather history for previous 24 hours

 ConditionsComfort  
Time TempWeatherWind HumidityBarometerVisibility
7:00 PM
Jan 28
37 °FFog.6 mph56%29.90 "Hg4 mi
6:00 PM36 °FChilly.6 mph62%29.93 "HgN/A
5:00 PM38 °FChilly.5 mph54%29.94 "HgN/A
4:00 PM39 °FPartly sunny.8 mph58%29.98 "Hg5 mi
3:00 PM38 °FChilly.9 mph58%30.04 "HgN/A
2:00 PM39 °FChilly.5 mph56%30.06 "HgN/A
1:00 PM37 °FOvercast.3 mph61%30.10 "Hg5 mi
12:00 PM36 °FChilly.6 mph70%30.16 "HgN/A
11:00 AM35 °FChilly.5 mph78%30.19 "HgN/A
10:00 AM32 °FFog.7 mph87%30.22 "Hg2 mi
9:00 AM31 °FChilly.2 mph93%30.24 "HgN/A
8:00 AM32 °FChilly.1 mph94%30.24 "HgN/A
7:00 AM31 °FFog.1 mph96%30.23 "Hg2 mi
6:00 AM32 °FChilly.No wind94%30.23 "HgN/A
5:00 AM32 °FChilly.1 mph94%30.24 "HgN/A
4:00 AM32 °FFog.No wind95%30.26 "Hg2 mi
3:00 AM32 °FChilly.2 mph95%30.27 "HgN/A
2:00 AM32 °FChilly.2 mph95%30.28 "HgN/A
1:00 AM32 °FFog.2 mph94%30.28 "Hg2 mi
12:00 AM32 °FChilly.1 mph94%30.27 "HgN/A
11:00 PM
Jan 27
32 °FChilly.1 mph95%30.28 "HgN/A
10:00 PM33 °FLight snow. Overcast.2 mph93%30.28 "Hg2 mi
9:00 PM33 °FChilly.3 mph93%30.27 "HgN/A
8:00 PM32 °FChilly.1 mph90%30.28 "HgN/A
Weather by CustomWeather, © 2014

See weather overviewHow to use our weather pages